AirNav   Phillips 66 Aviation Fuel
 
 1368 users online  

8NA0 Tappen Airstrip
Tappen, North Dakota, USA

GOING TO TAPPEN?


FAA INFORMATION EFFECTIVE 29 MARCH 2018

Location

FAA Identifier: 8NA0
Lat/Long: 46-52-51.9450N / 099-37-51.3870W
46-52.865750N / 099-37.856450W
46.8810958 / -99.6309408
(estimated)
Elevation: 1780 ft. / 543 m (estimated)
Variation: 08E (1986)
Time zone: UTC -5 (UTC -6 during Standard Time)
Zip code: 58487

Airport Operations

Airport use: Private use. Permission required prior to landing
Activation date: 04/1986
Control tower: no
ARTCC: MINNEAPOLIS CENTER
FSS: GRAND FORKS FLIGHT SERVICE STATION
Attendance: UNATNDD
Wind indicator: yes
Segmented circle: no

Nearby radio navigation aids

VOR radial/distance  VOR name  Freq  Var
JMSr261/39.2JAMESTOWN VOR/DME114.5004E

Airport Services

Runway Information

Runway 10/28

Dimensions: 2100 x 50 ft. / 640 x 15 m
Surface: turf
RUNWAY 10  RUNWAY 28
Traffic pattern: leftleft
Obstructions: bldgs, 50 ft. from runwaynone

Airport Ownership and Management from official FAA records

Ownership: Privately-owned
Owner: MARVIN BODVIG
RR, BOX 65
TAPPEN, ND 58487
Phone 701-327-4222
Manager: MARVIN BODVIG
RR, BOX 65
TAPPEN, ND 58487
Phone 701-327-4222

Airport Operational Statistics

Aircraft based on the field: 1
Single engine airplanes: 1
    

Additional Remarks

FARMSTEAD AT WEST RWY THR END.

Instrument Procedures

There are no published instrument procedures at 8NA0.

Some nearby airports with instrument procedures:

KJMS - Jamestown Regional Airport (39 nm E)
46D - Carrington Municipal Airport (39 nm NE)
KBIS - Bismarck Municipal Airport (46 nm W)
7L2 - Linton Municipal Airport (47 nm SW)
51D - Edgeley Municipal Airport (49 nm SE)
 
Loc | Ops | Rwys | IFR | FBO | Links
Com | Nav | Svcs | Stats | Notes

Mandan Aero Center
 
Area around 8NA0 (Tappen Airstrip)
 
Road maps at: MapQuest Bing Google
 
Aerial photo
No photo
 
Sectional chart

 
Airport distance calculator
Flying to Tappen Airstrip? Find the distance to fly.

From to 8NA0

Sunrise and sunset
Times for 20-Apr-2018
 Local
(UTC-5)
 Zulu
(UTC)
Morning civil twilight06:1011:10
Sunrise06:4311:43
Sunset20:3201:32
Evening civil twilight21:0502:05

Current date and time
Zulu (UTC)  20-Apr-2018 13:57:52
Local (UTC-5)  20-Apr-2018 08:57:52
 
METAR
K46D 
39nm NE 
201355Z AUTO 14007KT 10SM CLR 03/M02 A3039 RMK AO2
KJMS 
40nm E 
201256Z AUTO 16005KT 10SM CLR 01/M01 A3037 RMK AO2 SLP298 T00111011
KBIS 
46nm W 
201352Z 12007KT 10SM CLR 03/M02 A3033 RMK AO2 SLP283 T00331022
K7L2 
47nm SW 
201335Z AUTO 14010G15KT 10SM A3034 RMK AO2
TAF
KJMS 
40nm E 
201120Z 2012/2112 13005KT P6SM SCT200 FM202100 14010KT P6SM SCT090 BKN250 FM211000 18005KT P6SM SCT200
KBIS 
46nm W 
201120Z 2012/2112 11005KT P6SM SCT200 FM202000 14012KT P6SM SCT070 BKN250 FM211100 15007KT P6SM BKN045
NOTAMs
Click for the latest NOTAMs
NOTAMs are issued by the DoD/FAA and will open in a separate window not controlled by AirNav.

 

 
 

Would you like to see your business listed on this page?

 If your business provides an interesting product or service to pilots, flight crews, aircraft, or users of the Tappen Airstrip, you should consider listing it here.  To start the listing process, click on the button below
 
Add a business
 

Other Pages about Tappen Airstrip

Update a link
 
Copyright © AirNav, LLC. All rights reserved. Privacy Policy  Contact